Location: Cran-Gévrier
(45.9039°N, 6.1012°E)
Time: 20:50:39
(UTC+00:00)

Cosmos 1814 Rocket - Pass Details

Date: 09 February 2023
Orbit: 743 x 786 km, 74.1° (Epoch: 23 March)

Event Time Altitude Azimuth Distance (km) Brightness Sun altitude
Rises 17:54:49 0° 340° (NNW) 3,288 7.4 -11.3°
Reaches altitude 10° 17:57:15 10° 343° (NNW) 2,357 6.6 -11.7°
Maximum altitude 18:02:36 70° 66° (ENE) 841 4.0 -12.6°
Drops below altitude 10° 18:07:54 10° 151° (SSE) 2,336 6.3 -13.5°
Sets 18:10:18 0° 153° (SSE) 3,256 7.1 -13.9°
